Weather History for LTCF - September, 2013

Change the Weather History Date:

Monday, September 23, 2013

  Actual Average Record
Temperature  
Mean Temperature 47 °F -  
Max Temperature 53 °F 60 °F - ()
Min Temperature 39 °F 34 °F - ()
Degree Days  
Heating Degree Days 18    
Moisture  
Dew Point 41 °F    
Average Humidity 78    
Maximum Humidity 93    
Minimum Humidity 62    
Precipitation  
Precipitation 0.28 in 0.05 in - ()
Sea Level Pressure  
Sea Level Pressure 29.93 in    
Wind  
Wind Speed 6 mph ()    
Max Wind Speed 13 mph    
Max Gust Speed -    
Visibility 6.2 miles    
Events Rain    
T = Trace of Precipitation, MM = Missing Value Source: Averaged Metar Reports

Daily Weather History Graph

Daily Weather History Graph

Search for Another Location

Airport or City:

Trip Planner

Search our weather history database for the weather conditions in past years. The results will help you decide how hot, cold, wet, or windy it might be!

Date:

Astronomy

Sep. 23, 2013 Rise Set
Actual Time 5:56 AM EEST 6:03 PM EEST
Civil Twilight 5:28 AM EEST 6:30 PM EEST
Nautical Twilight 4:56 AM EEST 7:02 PM EEST
Astronomical Twilight 4:24 AM EEST 7:34 PM EEST
Moon 8:18 PM EEST (9/23) 9:55 AM EEST (9/23)
Length of Visible Light 13h 01m
Length of Day
12h 07m
Waning Gibbous, 84% of the Moon is Illuminated
Sep 23
Waning Gibbous
Sep 27
Last Quarter
Oct 5
New
Oct 12
First Quarter
Oct 19
Full

Hourly Weather History & Observations

Time (EEST) Temp. Windchill Dew Point Humidity Pressure Visibility Wind Dir Wind Speed Gust Speed Precip Events Conditions
12:50 AM 48.2 °F - 41.0 °F 76% 29.98 in 6.2 mi East 8.1 mph - N/A   Scattered Clouds
1:50 AM 46.4 °F 42.9 °F 41.0 °F 81% 29.98 in 6.2 mi East 6.9 mph - N/A   Scattered Clouds
2:50 AM 46.4 °F 42.4 °F 41.0 °F 81% 29.95 in 6.2 mi East 8.1 mph - N/A   Scattered Clouds
3:00 AM 46 °F - 40 °F 74%  in 6 mi East 8.1 mph - -   Partly Cloudy
3:50 AM 44.6 °F 41.4 °F 41.0 °F 87% 29.95 in 6.2 mi NE 5.8 mph - N/A   Scattered Clouds
4:50 AM 46.4 °F 42.9 °F 41.0 °F 81% 29.95 in 6.2 mi ENE 6.9 mph - N/A   Partly Cloudy
5:50 AM 46.4 °F - 41.0 °F 81% 29.95 in 6.2 mi East 2.3 mph - N/A   Scattered Clouds
6:50 AM 46.4 °F - 41.0 °F 81% 29.95 in 6.2 mi East 2.3 mph - N/A   Scattered Clouds
7:50 AM 46.4 °F 45.2 °F 42.8 °F 87% 29.95 in 6.2 mi SE 3.5 mph - N/A   Mostly Cloudy
8:50 AM 50.0 °F - 41.0 °F 71% 29.95 in 6.2 mi ENE 5.8 mph - N/A   Mostly Cloudy
9:00 AM 49 °F - 41 °F 64%  in 6 mi ENE 5.8 mph - -   Mostly Cloudy
9:05 AM 48.2 °F - 41.0 °F 76% 29.95 in 6.2 mi Variable 1.2 mph - N/A Rain Light Rain Showers
9:42 AM 48.2 °F - 42.8 °F 82% 29.95 in 6.2 mi ENE 4.6 mph - N/A   Mostly Cloudy
9:50 AM 48.2 °F - 42.8 °F 82% 29.95 in 6.2 mi ENE 4.6 mph - N/A   Mostly Cloudy
10:50 AM 51.8 °F - 41.0 °F 67% 29.92 in 6.2 mi NE 8.1 mph - N/A   Mostly Cloudy
11:47 AM 50.0 °F - 42.8 °F 76% 29.92 in 6.2 mi ENE 4.6 mph - N/A Rain Light Rain Showers
11:50 AM 50.0 °F - 42.8 °F 76% 29.92 in 6.2 mi NNE 4.6 mph - N/A Rain Light Rain Showers
12:50 PM 48.2 °F - 44.6 °F 87% 29.92 in 6.2 mi Calm Calm - N/A   Mostly Cloudy
1:50 PM 50.0 °F - 42.8 °F 76% 29.89 in 6.2 mi NNE 3.5 mph - N/A   Mostly Cloudy
2:50 PM 51.8 °F - 42.8 °F 71% 29.89 in 6.2 mi SE 4.6 mph - N/A   Mostly Cloudy
3:00 PM 51 °F - 43 °F 65%  in 6 mi SE 4.6 mph - -   Partly Cloudy
3:50 PM 53.6 °F - 41.0 °F 62% 29.89 in 6.2 mi SSE 3.5 mph - N/A   Mostly Cloudy
4:50 PM 50.0 °F - 41.0 °F 71% 29.89 in 6.2 mi North 12.7 mph - N/A   Mostly Cloudy
5:03 PM 50.0 °F - 42.8 °F 76% 29.89 in 6.2 mi North 11.5 mph - N/A Rain Light Rain Showers
5:50 PM 48.2 °F - 44.6 °F 87% 29.92 in 6.2 mi East 4.6 mph - N/A Rain Light Rain Showers
6:50 PM 46.4 °F 41.9 °F 44.6 °F 93% 29.92 in 6.2 mi SE 9.2 mph - N/A   Mostly Cloudy
7:50 PM 46.4 °F 42.4 °F 41.0 °F 81% 29.92 in 6.2 mi NE 8.1 mph - N/A   Mostly Cloudy
8:50 PM 46.4 °F 41.5 °F 39.2 °F 76% 29.95 in 6.2 mi NE 10.4 mph - N/A   Mostly Cloudy
9:00 PM 46 °F - 40 °F 72%  in 6 mi NE 10.4 mph - -   Partly Cloudy
9:50 PM 42.8 °F 38.6 °F 37.4 °F 81% 29.95 in 6.2 mi NE 6.9 mph - N/A   Mostly Cloudy
10:50 PM 41.0 °F 36.4 °F 37.4 °F 87% 29.92 in 6.2 mi ENE 6.9 mph - N/A   Mostly Cloudy
11:50 PM 39.2 °F 35.0 °F 37.4 °F 93% 29.92 in 6.2 mi East 5.8 mph - N/A   Scattered Clouds